TimeMDT,TemperatureF,Dew PointF,Humidity,Sea Level PressureIn,VisibilityMPH,Wind Direction,Wind SpeedMPH,Gust SpeedMPH,PrecipitationIn,Events,Conditions,WindDirDegrees,DateUTC
12:53 AM,61.0,42.1,50,30.00,10.0,Calm,Calm,-,N/A,,Clear,0,2013-08-29 06:53:00
1:53 AM,59.0,39.0,48,30.00,10.0,Calm,Calm,-,N/A,,Clear,0,2013-08-29 07:53:00
2:53 AM,57.0,39.0,51,30.00,10.0,Calm,Calm,-,N/A,,Clear,0,2013-08-29 08:53:00
3:53 AM,57.0,39.0,51,30.01,10.0,Calm,Calm,-,N/A,,Clear,0,2013-08-29 09:53:00
4:53 AM,55.0,37.9,53,30.01,10.0,Calm,Calm,-,N/A,,Clear,0,2013-08-29 10:53:00
5:53 AM,52.0,39.0,61,30.04,10.0,Calm,Calm,-,N/A,,Clear,0,2013-08-29 11:53:00
6:53 AM,52.0,39.0,61,30.07,10.0,Calm,Calm,-,N/A,,Clear,0,2013-08-29 12:53:00
7:53 AM,62.1,39.9,44,30.07,10.0,Calm,Calm,-,N/A,,Clear,0,2013-08-29 13:53:00
8:53 AM,68.0,42.1,39,30.08,10.0,Variable,3.5,-,N/A,,Clear,0,2013-08-29 14:53:00
9:53 AM,73.0,42.1,33,30.06,10.0,South,3.5,-,N/A,,Clear,180,2013-08-29 15:53:00
10:53 AM,77.0,36.0,23,30.06,10.0,Calm,Calm,-,N/A,,Clear,0,2013-08-29 16:53:00
11:53 AM,81.0,36.0,20,30.05,10.0,WSW,6.9,-,N/A,,Clear,250,2013-08-29 17:53:00
12:53 PM,84.0,36.0,18,30.03,10.0,East,3.5,-,N/A,,Clear,80,2013-08-29 18:53:00
1:53 PM,87.1,36.0,16,30.02,10.0,WSW,12.7,18.4,N/A,,Clear,250,2013-08-29 19:53:00
2:53 PM,86.0,36.0,17,30.01,10.0,West,6.9,-,N/A,,Clear,280,2013-08-29 20:53:00
3:53 PM,87.1,35.1,16,29.99,10.0,SW,12.7,17.3,N/A,,Scattered Clouds,230,2013-08-29 21:53:00
4:53 PM,86.0,34.0,16,29.99,10.0,WNW,6.9,-,N/A,,Partly Cloudy,290,2013-08-29 22:53:00
5:53 PM,84.0,35.1,17,30.00,10.0,West,5.8,-,N/A,,Clear,260,2013-08-29 23:53:00
6:53 PM,82.9,34.0,17,30.00,10.0,Calm,Calm,-,N/A,,Clear,0,2013-08-30 00:53:00
7:53 PM,75.0,35.1,23,30.00,10.0,NNW,9.2,-,N/A,,Clear,340,2013-08-30 01:53:00
8:53 PM,73.0,35.1,25,30.01,10.0,NNW,5.8,-,N/A,,Clear,330,2013-08-30 02:53:00
9:53 PM,72.0,39.0,30,30.01,10.0,SSE,4.6,-,N/A,,Scattered Clouds,150,2013-08-30 03:53:00
10:53 PM,71.1,41.0,34,30.00,10.0,North,8.1,-,N/A,,Mostly Cloudy,10,2013-08-30 04:53:00
11:53 PM,73.9,41.0,30,29.96,10.0,SE,9.2,-,N/A,,Mostly Cloudy,130,2013-08-30 05:53:00